Weather at N'Gaoundéré Airport

Public forecast

Using degrees Celsius for public forecast. Weather courtesy of forecast.io.

Current aviation weather report (METAR) for N'Gaoundéré Airport

Report is more than 6 hours old.

Retrieved 2021/10/01 09:00 UTC (15 days ago):

FKKN 010900Z 22006KT 9999 FEW013 FEW020CB 24/19 Q1019

Aviation forecast (TAF) for N'Gaoundéré Airport

Forecast is more than 12 hours old.

Retrieved 2020/01/06 12:21 UTC (2 years ago):

TAF FKKN 061100Z 0612/0624 34007KT 2000 DU NSC TEMPO 0618/0624 1000 HZ